Location: Unnamed
(51.5169°N, 0.1311°W)
Time: 22:23:04
(UTC+00:00)

deb r/b Ablestar - Visible Passes

Search period start: 05 November 2024 00:00
Search period end: 15 November 2024 00:00
Orbit: 765 x 787 km, 66.5° (Epoch: 05 November)

Date Brightness Start Highest point End Pass type
(mag) Time Alt. Az. Time Alt. Az. Time Alt. Az.
05 Nov ? 03:26:39 16° N 03:26:39 16° N 03:29:47 10° NE visible
05 Nov ? 05:07:05 10° NNW 05:11:30 27° NNE 05:15:58 10° E visible
06 Nov ? 02:52:36 14° NNE 02:52:36 14° NNE 02:54:12 10° NE visible
06 Nov ? 04:33:02 14° NNW 04:36:05 23° NNE 04:40:15 10° ENE visible
06 Nov ? 06:14:54 10° NW 06:20:12 67° NE 06:25:29 10° SE visible
07 Nov ? 02:18:33 11° NNE 02:18:33 11° NNE 02:18:44 10° NNE visible
07 Nov ? 03:58:58 17° N 04:00:36 20° NNE 04:04:28 10° ENE visible
07 Nov ? 05:39:47 10° NNW 05:44:57 51° NE 05:50:07 10° ESE visible
08 Nov ? 03:24:56 18° NNE 03:25:04 18° NNE 03:28:39 10° ENE visible
08 Nov ? 05:05:22 14° NNW 05:09:39 40° NE 05:14:37 10° ESE visible
09 Nov ? 02:50:55 15° NNE 02:50:55 15° NNE 02:52:50 10° NE visible
09 Nov ? 04:31:21 19° NNW 04:34:15 32° NE 04:39:00 10° E visible
09 Nov ? 06:12:34 10° NW 06:17:50 70° SW 06:23:07 10° SSE visible
10 Nov ? 02:16:56 10° NE 02:16:56 10° NE 02:17:05 10° NE visible
10 Nov ? 03:57:21 23° N 03:58:48 27° NNE 04:03:15 10° E visible
10 Nov ? 05:37:47 13° NW 05:42:39 87° NE 05:47:58 10° SE visible
11 Nov ? 03:23:24 23° NNE 03:23:24 23° NNE 03:27:26 10° ENE visible
11 Nov ? 05:03:50 21° NNW 05:07:23 66° NE 05:12:40 10° SE visible
12 Nov ? 02:49:29 17° NE 02:49:29 17° NE 02:51:32 10° ENE visible
12 Nov ? 04:29:56 32° NNW 04:32:03 50° NE 04:37:11 10° ESE visible
12 Nov ? 06:10:22 11° NW 06:15:05 37° WSW 06:19:55 10° S visible
13 Nov ? 03:56:04 38° NNE 03:56:37 39° NE 04:01:35 10° ESE visible
13 Nov ? 05:36:31 20° NW 05:39:57 51° WSW 05:45:04 10° SSE visible
14 Nov ? 03:22:17 29° ENE 03:22:17 29° ENE 03:25:52 10° E visible
14 Nov ? 05:02:43 38° NW 05:04:44 71° SW 05:10:00 10° SSE visible
